Location: Ferchesar
(52.6477°N, 12.4298°E)
Time: 09:42:15
(UTC+01:00)

A-11 Canister half - Pass Details

Date: 10 December 2021
Orbit: 1516 x 1684 km, 47.2° (Epoch: 22 January)

Event Time Altitude Azimuth Distance (km) Brightness Sun altitude
Rises 05:58:22 0° 227° (SW) 4,725 11.2 -18.7°
Reaches altitude 10° 06:01:32 10° 222° (SW) 3,765 10.8 -18.3°
Maximum altitude 06:10:30 47° 153° (SSE) 2,042 9.9 -17.0°
Drops below altitude 10° 06:19:48 10° 84° (E) 3,898 12.2 -15.6°
Sets 06:23:07 0° 79° (E) 4,905 12.8 -15.1°
